Theta_e
293 288 286 286 289 291 291 290 291 291 290 286 285 283 285 284 286 287 289 289 288 286 287 289 289 290 290 291 293 295 295 295 294 294 294 295 295 295 295 296 297 297 298 301 301 298 297 297 296 297 298 298 297 297 296 296 295 294 294 293 293 294 294 294 293 292 291 290 289 289 290 290 290 290 289 289 289 289 289 288 288 288 288 287 287 287
291 287 286 290 292 293 291 290 290 289 287 287 286 283 286 283 286 290 290 290 287 285 285 286 288 289 290 292 293 295 293 293 295 295 295 295 295 296 296 296 297 298 300 299 299 299 295 295 295 296 296 296 295 295 296 296 295 295 294 293 294 294 293 294 294 293 292 292 292 291 290 291 291 290 289 288 288 289 289 288 288 288 288 287 287 287
286 286 289 291 294 291 289 288 287 287 287 286 286 285 283 285 288 290 290 292 289 285 287 287 287 289 290 292 293 294 294 295 296 297 297 297 296 296 297 297 297 298 297 298 298 299 297 294 293 295 296 296 297 297 296 296 295 294 293 293 294 294 293 294 294 293 292 292 292 292 291 291 290 290 290 289 289 288 288 288 288 287 287 287 286 286
284 285 290 292 291 289 288 287 285 286 285 284 284 281 283 287 284 285 285 285 285 288 284 283 286 288 290 292 293 294 295 296 296 297 297 297 296 296 297 298 298 298 298 298 298 298 296 293 293 293 294 296 296 296 295 295 295 294 294 293 293 293 293 293 293 294 293 293 292 289 289 290 289 288 288 287 286 287 287 287 287 287 287 286 286 286
289 287 289 291 289 289 289 288 286 284 287 285 286 285 285 285 287 286 285 284 286 286 284 286 287 288 290 289 290 293 295 294 295 295 295 296 297 297 298 298 298 298 298 298 299 298 295 291 292 294 295 295 295 295 295 295 295 295 294 293 293 293 293 293 294 293 292 291 288 287 287 287 286 286 286 285 284 286 287 287 286 286 286 286 286 285
289 289 287 288 288 287 286 285 286 287 285 286 285 287 288 289 287 286 286 285 281 283 283 284 282 286 285 288 289 291 290 290 292 292 293 295 296 296 296 296 297 297 298 298 298 299 296 293 292 292 293 294 295 295 296 296 295 295 294 293 293 293 293 293 293 293 292 291 290 288 287 286 286 285 285 286 286 285 286 287 287 286 286 286 286 285
288 289 290 288 287 286 285 286 287 287 287 286 283 287 289 288 286 285 285 283 279 277 284 283 280 282 282 284 286 287 288 290 290 290 292 294 295 295 295 297 297 297 297 297 297 298 297 295 291 292 293 294 294 296 296 295 294 294 293 293 293 293 292 293 292 292 292 290 290 289 289 289 288 288 287 289 289 288 287 287 286 286 285 286 285 285
287 286 286 287 287 286 284 283 288 288 286 284 283 284 285 284 284 285 284 284 283 281 283 283 282 280 283 286 288 289 290 289 289 291 292 294 295 295 296 296 296 297 297 296 296 296 297 296 295 294 293 294 295 294 294 294 293 293 292 292 292 292 292 292 292 292 292 291 290 289 289 289 289 289 289 288 288 287 287 286 286 286 285 285 285 285
287 285 284 285 284 283 285 289 288 289 287 283 286 284 285 286 284 283 284 282 280 279 280 281 282 280 282 285 286 288 285 287 288 291 293 295 296 296 296 296 296 297 297 296 296 296 296 295 294 294 293 294 294 294 294 294 293 293 292 292 291 292 292 292 291 292 291 291 290 290 290 289 290 290 289 287 287 286 286 285 285 285 285 285 285 285
285 287 286 288 286 285 288 287 287 290 286 285 284 284 283 282 282 282 280 282 279 277 279 280 283 279 282 288 282 284 285 286 288 291 293 294 295 296 296 297 297 296 296 295 295 296 295 293 293 293 293 292 294 294 294 292 292 292 291 291 291 291 291 291 291 291 291 291 291 290 289 289 289 289 286 286 286 285 285 285 285 285 285 284 284 284
286 290 288 287 287 289 285 285 284 288 287 285 285 284 282 281 278 277 277 278 279 278 281 282 283 283 279 283 284 283 286 287 290 289 291 293 294 295 295 296 297 297 297 297 294 292 292 290 291 290 292 292 291 291 291 291 291 291 291 290 290 291 291 291 291 291 290 290 290 290 290 289 289 288 286 285 285 285 284 285 284 284 285 284 284 284
287 287 288 286 288 286 285 286 283 283 284 287 287 280 283 284 277 276 270 276 275 277 280 283 283 284 279 280 281 284 283 283 289 289 291 292 293 294 295 295 296 296 297 294 292 292 289 290 290 289 290 290 290 289 290 290 291 290 290 290 290 290 290 290 290 290 290 290 290 290 290 289 290 288 287 286 286 285 285 285 284 284 284 284 284 283
282 286 287 289 288 291 286 287 284 281 286 286 282 284 280 275 273 270 271 271 272 278 278 281 283 280 281 287 285 286 289 287 286 290 291 291 292 293 293 294 295 295 294 293 291 290 290 290 290 289 289 288 289 290 290 290 290 290 290 290 289 289 290 290 290 290 290 290 290 290 290 290 290 289 288 287 287 286 285 285 285 284 284 283 283 283
283 282 285 287 289 289 290 285 282 282 284 284 284 281 278 272 271 269 267 266 270 277 277 279 282 281 286 285 289 292 294 295 293 290 291 292 293 293 294 294 293 293 293 294 291 290 291 291 291 290 290 290 289 289 290 290 290 290 290 290 290 290 289 289 289 289 289 290 290 290 290 290 289 289 288 288 287 287 286 286 285 285 284 284 284 283
279 283 284 287 285 288 292 291 290 289 284 287 285 287 283 280 272 271 273 277 279 281 276 277 277 275 275 282 285 292 290 288 287 290 291 291 291 291 290 291 292 293 294 294 291 291 291 291 290 290 290 290 289 289 289 290 290 290 290 290 290 289 289 289 289 289 289 290 290 290 290 290 289 289 289 288 288 287 286 286 286 285 285 285 285 284
283 284 286 291 287 289 290 294 291 284 284 284 283 282 280 282 282 283 284 281 283 280 275 273 278 277 283 286 287 287 289 290 289 288 287 289 290 290 291 292 294 295 295 294 290 290 290 290 290 290 290 290 289 289 289 289 290 290 290 290 290 290 289 289 289 289 289 290 290 290 289 290 289 289 289 288 288 288 287 286 286 286 285 285 285 285
283 281 285 288 286 288 286 287 290 290 282 283 285 282 286 286 287 285 285 285 278 274 279 278 278 284 286 291 290 288 288 290 290 289 289 290 291 290 291 294 294 295 295 293 292 291 291 291 290 291 290 290 289 289 290 290 290 291 291 290 290 290 289 289 289 289 289 289 289 289 289 289 289 289 288 288 288 288 287 286 286 286 285 285 285 284
285 287 287 285 286 286 283 285 286 284 287 284 280 284 286 287 285 284 276 276 277 277 279 280 281 283 281 281 283 283 284 284 284 286 289 289 289 289 292 292 292 292 292 292 291 290 291 291 292 291 290 290 290 290 289 289 289 290 291 290 290 289 289 289 289 289 289 289 289 289 289 289 289 289 289 289 288 287 286 285 285 285 284 284 285 284
289 282 288 286 286 286 284 288 287 287 286 283 282 287 286 280 280 280 275 275 276 276 277 281 283 284 284 285 288 288 290 290 290 289 287 288 288 288 289 291 291 291 291 292 292 291 291 292 292 290 290 290 290 290 289 289 289 289 288 289 290 290 290 290 290 289 290 289 290 290 289 289 289 289 289 288 288 286 286 285 285 285 285 284 284 284
287 283 285 287 287 287 285 285 280 283 285 286 286 284 285 283 280 278 281 278 281 278 280 279 283 281 288 283 286 286 287 288 288 285 287 287 287 287 288 290 291 291 291 291 291 291 290 290 288 288 289 289 290 289 289 288 287 288 289 288 289 289 289 289 289 289 289 289 289 290 289 289 289 289 289 288 287 286 286 285 285 285 284 284 284 283
285 286 279 287 285 286 282 284 281 283 282 284 284 281 283 282 283 283 283 281 281 279 279 279 279 284 289 285 287 286 285 284 285 286 285 286 287 288 288 289 290 290 291 292 292 291 290 289 288 287 285 285 285 286 287 287 288 288 287 288 289 289 289 289 289 289 289 289 289 289 289 289 289 288 288 287 287 286 286 285 285 285 285 283 283 283
286 285 282 285 285 286 287 287 286 285 286 283 284 283 285 283 280 280 278 286 281 281 278 280 277 285 292 292 287 288 285 284 285 285 288 290 291 289 288 288 287 290 291 290 290 289 290 289 291 289 287 286 286 285 287 288 287 287 288 289 289 288 288 289 289 289 290 289 289 288 288 288 288 287 287 287 286 286 286 285 285 284 283 283 283 283
290 285 285 283 285 287 290 290 287 288 289 289 289 287 289 286 284 281 277 281 284 283 285 284 281 282 293 297 294 289 288 286 289 288 289 289 288 289 292 290 289 289 290 291 291 291 292 293 293 291 290 290 288 288 288 287 288 289 288 288 288 288 289 289 289 289 289 289 288 288 288 288 287 287 287 286 286 286 286 285 284 284 283 283 282 282
292 286 282 285 288 289 291 293 291 289 288 286 286 288 287 286 287 285 284 285 283 284 282 282 280 283 295 295 295 295 294 289 286 286 288 286 287 290 291 293 294 293 293 294 295 294 292 290 290 292 293 293 292 291 290 290 289 288 289 289 289 289 289 289 289 289 288 288 288 288 288 288 288 287 286 286 287 286 286 286 284 284 283 283 282 281
287 286 286 282 282 283 285 287 288 286 284 284 286 287 288 289 289 288 288 285 282 283 283 281 276 283 293 294 295 296 295 294 294 292 287 290 292 291 291 290 290 290 292 294 293 292 292 294 296 297 297 296 294 293 292 291 290 290 289 289 289 290 290 290 289 288 288 288 288 288 288 287 287 287 286 286 287 286 286 285 284 283 283 282 281 281
290 287 285 279 276 274 274 276 278 281 282 282 283 287 288 287 287 285 281 283 279 283 284 281 281 287 292 293 293 294 294 295 295 295 291 287 287 289 289 289 291 292 293 291 292 292 293 294 294 294 294 294 293 293 293 292 292 291 290 289 289 289 288 288 287 288 288 288 288 288 287 287 286 286 286 286 286 286 286 285 284 283 282 282 281 281
285 286 288 286 283 280 282 284 287 287 282 282 283 284 285 287 288 287 286 283 280 283 283 284 285 285 288 290 291 292 293 293 293 294 294 292 292 291 289 289 290 291 291 290 289 289 289 289 289 289 290 290 290 290 290 291 291 291 290 290 289 288 288 288 287 288 288 288 288 288 287 287 287 287 287 287 286 286 285 285 284 283 282 282 281 280
284 285 286 287 286 287 287 287 288 288 285 286 285 285 285 284 283 283 282 281 287 283 279 286 287 285 286 290 291 291 292 293 294 294 295 295 295 294 292 289 289 287 287 287 287 286 286 286 287 287 287 288 289 290 290 288 289 290 290 290 290 288 288 288 287 287 288 288 288 287 288 287 287 287 287 287 286 285 285 284 283 283 282 282 281 280
284 283 286 287 285 288 288 288 289 288 287 287 287 286 286 287 286 283 283 284 284 281 279 285 286 285 287 289 291 292 293 293 294 295 296 297 293 287 286 285 285 285 285 284 284 285 285 285 285 286 286 287 288 289 289 290 291 290 289 289 289 288 288 288 287 287 288 287 287 288 288 287 287 287 286 285 285 284 284 283 283 282 282 281 281 281
285 282 285 285 284 285 286 287 288 287 286 286 286 287 288 287 286 286 286 287 286 284 285 286 286 286 288 290 292 292 291 290 291 291 287 284 283 285 284 284 283 283 283 283 283 284 284 284 285 285 286 287 287 288 289 290 290 290 290 291 291 290 289 285 287 288 287 287 287 288 287 287 286 286 285 285 284 284 284 283 282 282 281 281 280 280
286 281 287 284 282 283 286 287 287 286 286 284 286 287 287 287 287 287 287 287 287 286 287 286 286 286 291 285 282 282 283 284 284 284 283 283 282 282 282 282 282 282 283 283 283 283 283 283 284 285 285 286 286 287 288 289 289 289 289 289 290 290 289 286 287 287 286 287 287 287 286 286 285 285 284 284 284 283 283 282 282 281 280 280 279 279
285 280 285 283 279 279 284 285 285 285 284 283 283 284 285 285 284 286 285 288 286 284 286 286 284 284 281 280 282 281 280 280 280 281 280 280 280 280 280 280 281 281 282 282 283 283 283 283 284 284 285 285 286 287 288 288 288 288 287 288 288 289 288 287 286 286 286 287 287 286 286 286 285 284 284 284 283 283 282 281 281 280 279 279 278 278
282 281 280 280 277 276 282 284 283 283 281 278 280 284 286 286 287 288 288 288 288 287 283 282 279 275 277 279 277 278 278 278 279 280 280 280 280 279 279 279 280 280 281 282 282 282 282 283 283 284 285 285 286 286 287 287 286 286 286 286 287 288 287 286 286 286 286 286 286 285 285 285 284 284 284 283 283 282 281 280 279 279 278 278 278 278
281 281 279 282 275 276 280 280 281 278 271 274 285 285 286 285 285 283 283 281 279 280 276 276 276 278 278 278 277 277 277 277 279 280 284 281 280 280 280 280 280 281 281 281 281 281 282 282 283 284 284 285 286 286 287 287 286 285 286 286 287 286 286 285 285 284 285 285 284 284 283 283 284 284 283 282 282 281 280 279 278 279 279 278 278 277
279 279 277 279 275 274 278 278 274 269 271 282 281 281 281 280 278 276 275 277 278 278 278 277 277 277 278 278 278 278 280 280 280 281 283 282 282 282 281 281 280 280 281 281 281 281 282 283 283 283 284 284 285 286 287 286 286 285 285 286 285 285 284 284 283 283 283 283 283 282 281 282 282 282 281 280 280 279 278 278 278 278 278 278 278 277
278 277 276 275 276 276 274 273 268 268 282 279 279 279 281 280 278 278 277 275 277 279 278 276 278 277 278 278 279 280 279 280 281 282 282 282 283 282 282 282 282 282 282 283 282 282 282 283 284 284 284 285 285 286 286 285 285 284 284 285 285 283 283 282 282 282 282 282 283 282 282 281 281 280 279 280 279 278 278 278 278 278 278 277 277 277
282 280 278 274 279 271 273 273 272 278 279 280 276 276 276 273 274 273 270 276 276 278 278 277 278 278 278 279 279 279 280 280 278 280 282 282 283 283 283 283 283 283 283 283 283 283 283 284 284 284 285 285 286 286 286 285 284 283 284 284 284 283 282 282 281 281 281 281 281 281 281 280 280 279 279 279 278 278 278 278 277 277 277 276 276 276
283 279 280 276 275 280 274 272 272 272 269 272 272 276 279 281 280 279 278 274 277 278 280 277 277 277 277 278 279 279 279 276 274 276 280 282 283 283 284 284 284 284 284 284 284 284 284 284 284 285 285 285 285 286 286 285 284 283 283 283 283 282 283 283 281 280 279 280 280 280 279 279 278 279 278 278 277 278 278 277 276 277 276 276 275 275
278 282 282 278 275 275 271 268 268 267 269 271 269 274 278 281 280 280 276 270 278 277 280 278 276 277 278 277 277 279 275 271 272 276 280 281 282 283 283 283 284 284 284 283 283 283 283 283 284 284 285 285 284 286 286 285 285 284 283 283 283 283 283 283 282 281 280 280 280 279 277 276 277 278 277 277 277 277 277 276 276 275 275 275 275 275
265 267 272 272 273 273 271 269 266 269 266 270 271 275 278 279 279 279 269 270 276 277 280 279 277 278 278 278 278 277 275 270 273 276 280 281 282 283 282 283 283 283 283 283 283 283 283 284 284 284 284 284 284 286 286 285 285 284 284 284 284 284 284 283 282 281 279 279 277 276 276 276 276 276 276 276 275 275 275 275 274 273 273 273 273 273
266 269 269 268 269 271 273 269 271 271 274 273 273 275 276 278 276 268 265 271 275 278 281 280 278 279 279 278 278 274 277 278 278 280 281 282 281 282 283 283 283 283 282 282 282 284 282 283 283 283 283 283 284 285 285 285 284 283 284 283 283 283 284 283 282 281 279 278 277 275 275 274 274 275 274 274 274 274 273 274 274 273 273 272 272 272
267 269 269 271 269 269 270 269 269 272 277 277 277 278 277 274 263 264 269 275 274 275 279 280 279 279 279 278 278 277 278 279 280 280 281 281 281 282 282 282 282 282 282 282 282 282 282 282 283 282 283 283 284 284 284 284 283 283 283 283 283 284 284 283 282 280 279 279 278 277 276 275 276 276 274 273 274 274 274 274 274 274 273 273 272 272
267 267 261 266 265 267 266 266 265 262 272 275 276 276 277 268 268 277 277 276 278 277 278 278 279 279 279 277 279 279 279 279 279 280 280 280 280 280 280 280 279 279 279 280 280 281 282 281 281 281 282 283 283 283 283 283 282 282 283 282 283 284 284 283 282 281 280 279 279 278 277 276 277 277 276 275 275 275 275 274 273 273 273 273 272 272
272 266 264 265 269 265 264 263 262 267 272 275 274 269 274 277 278 278 277 277 279 280 280 280 280 280 280 278 277 277 278 278 278 279 279 279 279 278 278 278 278 278 279 279 280 280 281 281 281 281 281 282 282 282 283 282 282 282 282 281 283 284 284 284 284 282 281 281 280 279 277 276 276 277 276 276 275 275 274 273 273 272 272 272 271 271
273 271 272 267 271 270 265 270 273 275 276 278 278 278 278 279 279 278 279 278 277 278 279 278 278 279 278 278 277 277 277 278 278 278 277 277 277 277 277 277 278 278 278 278 279 280 280 280 280 280 280 281 281 281 281 282 281 281 280 281 283 283 283 283 283 282 282 282 281 280 278 277 276 276 276 276 275 275 274 272 272 271 272 271 271 271
275 273 272 271 270 275 275 276 278 277 276 277 279 279 277 277 277 275 275 276 277 278 279 278 278 278 277 276 276 276 277 277 277 276 276 276 276 276 276 276 276 277 277 277 277 278 279 279 279 279 278 279 280 280 280 280 281 279 280 281 282 283 283 282 282 281 281 281 281 280 278 277 276 276 276 275 275 275 275 273 272 272 271 271 271 271
271 274 271 271 274 271 267 275 274 275 276 275 276 276 276 276 276 277 276 277 277 279 279 279 279 278 277 274 276 276 275 275 275 275 275 275 275 275 275 275 275 275 275 275 276 277 277 277 277 277 277 277 278 278 279 279 279 279 280 280 281 282 281 281 280 280 280 280 281 281 278 277 276 275 275 275 275 275 274 274 273 272 271 271 271 271
270 275 272 273 272 271 270 275 276 276 276 276 276 275 276 277 278 277 277 277 278 278 278 277 275 274 274 273 273 272 273 273 273 273 273 273 273 274 273 273 273 274 274 275 275 275 274 274 274 275 275 275 276 277 277 277 277 278 279 279 280 280 279 279 279 279 279 279 280 280 279 277 274 274 275 274 274 274 273 273 273 272 272 271 271 271
273 274 261 267 270 273 275 275 275 276 275 276 277 277 277 277 277 276 276 275 274 274 275 273 274 273 273 272 272 272 271 272 272 272 271 272 272 272 272 272 273 273 273 273 273 274 273 273 273 273 274 274 275 275 275 275 276 277 277 278 278 278 277 277 277 277 277 278 279 279 278 277 276 275 275 274 273 274 274 274 273 273 273 274 274 273
274 271 275 272 269 269 270 273 276 270 271 275 276 275 276 275 274 274 274 273 272 271 271 271 271 272 271 271 271 271 269 270 271 271 270 271 271 271 271 271 271 271 271 272 273 272 272 272 272 272 272 273 273 273 273 273 274 276 276 276 276 276 274 274 275 275 275 277 277 278 278 277 275 275 274 274 273 273 272 274 277 275 273 273 275 277
273 274 274 271 270 270 275 277 277 277 276 277 277 278 274 271 272 271 270 269 270 270 270 269 269 269 270 270 271 270 269 270 270 270 269 269 269 270 270 270 269 270 270 271 270 270 270 270 270 270 270 271 272 271 272 272 273 273 274 274 274 273 273 272 272 273 274 275 275 277 277 277 276 275 274 273 273 273 272 271 273 278 278 277 276 277
Wind_Speed
3 7 9 9 14 17 12 12 18 20 14 3 1 3 10 10 11 9 13 10 1 5 12 15 19 19 17 15 17 16 13 16 17 18 17 15 15 14 14 16 19 18 20 20 14 10 11 11 10 10 10 11 10 10 11 12 14 15 16 15 17 15 15 14 14 13 13 13 9 7 12 13 11 11 10 9 9 10 10 10 10 10 9 9 9 9
2 8 8 14 19 18 13 12 11 8 4 6 7 6 12 5 15 15 12 9 0 3 5 5 15 19 18 15 16 15 9 18 20 22 21 18 16 15 16 20 20 20 15 13 15 15 8 9 8 8 9 8 12 12 13 17 18 18 16 17 16 12 14 15 16 15 15 15 16 17 16 13 12 12 12 12 11 11 9 9 10 9 8 9 9 9
6 11 13 18 16 2 1 2 3 6 8 7 9 8 8 11 14 14 13 16 8 2 15 9 18 20 16 15 14 15 19 16 17 21 21 18 16 14 16 19 20 18 18 16 17 17 9 7 7 8 9 11 16 16 18 18 16 14 14 14 13 14 15 15 15 13 15 12 11 12 10 13 10 8 8 7 7 6 8 9 9 9 9 9 9 9
7 6 17 14 5 5 5 1 2 1 3 6 6 5 13 8 3 13 3 2 1 5 7 5 17 20 14 15 18 19 21 18 15 20 20 17 18 18 21 21 18 19 19 20 20 19 8 7 8 8 10 12 11 10 10 10 15 13 14 14 15 15 15 14 14 15 12 11 8 6 4 5 6 6 6 5 5 6 6 10 9 9 10 10 10 10
17 4 7 9 6 7 11 7 3 5 13 6 11 11 11 11 16 12 7 5 6 6 5 13 17 18 11 14 11 15 18 17 14 17 16 19 17 17 19 19 19 21 22 21 20 16 6 5 9 12 12 8 11 13 14 14 15 13 18 17 17 15 16 14 15 15 12 10 8 6 6 6 6 5 6 5 6 9 10 8 9 12 10 10 10 10
13 5 2 4 7 6 7 7 8 9 14 10 7 11 20 19 13 8 9 7 4 7 2 1 11 17 5 13 14 11 5 8 10 11 16 21 19 17 18 22 20 16 17 19 20 19 6 8 7 8 8 10 12 13 15 14 16 14 13 14 13 11 12 13 14 15 13 13 14 13 11 11 10 9 9 14 16 14 14 16 8 6 10 11 10 10
6 3 6 7 6 8 7 8 7 9 16 11 7 14 18 12 8 8 12 3 6 3 3 2 0 22 4 4 8 6 7 12 7 7 16 19 17 14 16 18 16 13 13 12 14 15 11 9 6 8 11 13 13 15 9 9 11 12 12 13 15 14 13 13 14 15 13 13 12 16 17 16 16 16 13 13 11 11 10 8 11 11 9 11 11 10
3 3 6 5 6 6 6 5 13 15 10 10 2 6 6 6 7 9 6 6 8 1 4 1 3 7 25 10 10 12 13 10 11 14 17 17 16 15 15 13 14 16 12 11 12 13 12 9 11 13 13 11 15 8 7 10 11 14 14 14 14 12 12 13 13 16 15 15 15 15 14 13 14 15 15 13 11 8 8 10 11 10 11 11 11 11
6 3 5 5 4 5 8 19 1 11 8 5 1 5 5 8 7 2 5 6 3 3 9 3 3 4 12 7 2 6 5 8 11 17 18 17 16 14 13 13 16 17 15 10 12 15 12 9 9 9 9 12 9 9 13 13 12 11 11 12 12 13 13 13 15 16 16 15 16 16 15 14 13 13 10 7 7 9 10 11 9 10 10 10 10 10
2 3 7 9 8 10 11 2 6 12 7 4 5 7 6 5 4 3 4 3 1 1 10 7 7 6 20 14 5 3 1 7 13 16 17 14 12 13 12 12 16 13 12 10 13 14 9 6 7 8 8 7 11 9 7 7 9 10 10 13 14 15 13 13 15 16 17 16 14 15 15 17 14 11 7 8 10 10 10 12 12 11 10 10 10 10
4 1 5 5 9 5 2 0 3 8 4 4 3 2 4 6 3 3 5 2 3 8 11 14 13 9 15 5 9 8 8 8 9 4 7 10 11 14 13 14 14 14 11 12 7 6 6 3 5 5 8 7 5 5 7 8 9 10 11 13 15 15 12 13 16 17 18 16 15 16 17 18 17 14 11 10 10 10 9 13 12 12 11 9 11 9
3 0 1 4 4 4 3 2 3 1 1 3 2 2 3 4 6 1 3 2 3 12 4 14 15 13 13 2 4 5 3 4 7 8 8 10 13 12 10 11 11 11 13 7 5 6 3 4 2 1 5 5 6 6 8 9 9 11 12 13 15 13 15 14 14 16 16 16 16 15 16 17 16 15 13 15 15 14 15 13 12 9 8 10 9 9
4 11 5 2 4 10 3 1 1 3 2 4 4 1 2 5 6 3 2 1 5 11 2 3 7 3 21 15 4 8 11 6 7 9 9 10 11 11 11 13 12 10 10 8 5 4 2 4 5 5 5 4 6 10 10 11 11 11 12 15 17 17 15 15 15 17 17 16 17 17 16 15 13 14 15 15 14 13 13 12 11 12 13 10 10 12
9 2 2 5 1 6 8 8 1 1 4 7 7 5 5 3 4 6 4 2 6 8 3 4 1 12 12 8 10 16 20 19 10 9 10 9 11 12 11 9 10 11 11 12 3 3 4 5 5 4 5 5 5 6 9 10 12 12 12 14 17 17 15 14 15 16 17 19 19 16 15 14 12 14 14 13 13 12 11 11 13 14 14 14 16 14
7 11 7 7 4 6 13 12 15 10 10 14 4 13 11 10 6 5 5 9 9 9 1 3 4 9 1 5 3 11 5 5 4 6 10 10 8 8 9 11 14 14 14 9 1 3 3 4 4 4 5 6 6 6 7 8 10 10 12 14 16 14 15 16 17 14 18 17 16 15 14 13 12 14 13 13 11 11 13 12 13 12 11 13 13 13
9 12 7 10 1 9 12 12 5 6 3 3 3 3 1 11 6 8 8 8 11 8 4 2 8 3 7 1 4 6 9 9 7 5 4 7 8 8 10 12 14 15 13 10 5 4 4 5 4 5 6 5 5 6 7 9 10 12 14 14 16 18 17 16 15 16 18 17 12 12 13 16 14 11 11 10 11 13 14 14 14 14 13 12 10 10
1 7 1 2 5 2 1 4 3 5 6 3 7 7 11 3 7 7 5 5 2 3 15 3 8 12 6 14 6 5 5 10 7 9 8 10 10 8 9 12 12 11 11 9 9 7 7 6 6 6 6 5 6 7 11 13 15 16 14 13 14 13 11 16 18 19 16 14 13 16 16 13 13 15 17 17 17 15 11 11 11 11 12 10 10 11
7 10 1 4 5 1 1 0 1 3 2 8 4 7 2 2 3 3 6 1 4 12 10 3 15 13 4 15 2 5 5 6 4 7 10 7 7 7 11 9 11 12 12 11 9 6 6 7 9 5 2 3 5 7 6 5 5 5 7 11 13 11 14 16 17 16 15 15 16 15 15 16 16 16 16 13 12 11 10 10 10 10 10 14 12 10
2 8 7 1 1 5 3 0 5 1 0 2 4 2 3 4 5 3 4 6 9 11 7 9 18 19 11 17 8 11 12 10 10 6 4 7 6 5 6 8 8 9 9 9 9 7 6 6 4 4 2 4 5 4 4 4 4 5 6 6 9 14 16 13 10 10 10 13 13 13 16 16 15 13 13 11 9 8 12 13 13 14 14 9 10 12
3 5 2 0 2 1 1 2 5 2 2 1 1 2 1 1 3 3 7 1 2 13 9 11 11 15 7 3 4 6 8 7 6 5 1 5 9 6 6 6 8 8 8 9 9 8 5 3 3 4 5 6 6 5 5 5 5 7 7 6 9 8 7 9 12 13 14 14 13 13 12 13 15 15 13 12 11 11 13 14 13 13 11 14 11 11
5 3 9 2 1 2 2 3 7 6 5 3 2 4 2 1 3 2 3 2 6 10 10 10 13 9 9 3 2 3 5 3 3 4 5 4 5 7 6 6 8 9 9 9 10 10 8 5 4 4 4 3 2 1 2 3 5 5 5 9 10 12 12 12 13 11 14 12 14 13 15 16 15 15 12 10 11 13 12 11 12 13 13 9 12 13
0 2 6 2 8 10 9 2 7 4 2 3 6 6 8 7 6 9 11 3 4 7 10 10 15 5 6 7 5 1 3 3 3 2 5 7 8 6 5 5 4 7 10 9 8 8 8 6 3 2 2 1 2 4 6 8 7 8 10 11 9 8 10 13 13 14 15 12 12 11 13 12 10 10 11 14 13 13 13 12 12 11 9 13 13 13
4 2 2 6 10 13 9 5 5 4 4 7 7 9 7 5 4 5 13 10 6 6 6 12 13 10 1 14 15 4 4 5 6 5 7 5 6 7 11 9 6 4 6 10 9 9 11 14 15 9 3 2 3 4 5 5 8 9 8 8 9 11 15 13 14 13 10 11 12 15 15 12 11 11 14 15 14 15 16 14 12 11 13 13 12 12
7 1 3 7 4 7 13 12 7 7 6 5 4 8 9 12 11 11 10 9 11 9 11 10 14 4 4 9 18 15 13 7 3 2 3 4 5 8 10 12 17 19 15 12 13 12 10 8 7 9 13 12 8 6 8 8 8 9 10 13 12 14 18 15 14 12 11 12 13 15 13 15 15 14 14 16 16 18 17 14 12 12 13 13 11 13
3 2 4 7 3 3 5 6 9 2 2 4 7 8 13 15 15 15 12 0 12 12 14 14 18 7 5 8 14 19 20 20 15 10 2 6 8 7 7 8 7 8 11 15 14 12 13 14 15 15 16 15 11 9 7 7 9 10 12 11 13 16 16 12 10 9 11 11 14 13 13 14 13 15 16 17 15 18 17 15 14 12 14 13 13 13
11 5 5 9 11 13 11 10 10 8 7 5 3 8 11 15 17 10 11 8 16 9 15 16 15 12 10 9 13 18 23 25 23 14 2 3 5 7 8 7 8 7 9 11 12 14 15 14 14 16 16 16 13 11 11 9 9 10 10 9 7 9 7 8 5 7 9 10 12 13 14 14 13 15 17 18 17 17 16 15 13 13 12 14 14 13
3 2 8 11 12 15 14 13 9 9 2 7 5 7 8 10 13 14 12 13 16 14 17 17 17 18 15 12 14 18 20 22 23 22 13 6 6 7 5 4 7 10 13 14 14 14 15 17 17 16 16 15 14 11 9 10 10 9 10 11 10 10 10 9 7 8 10 12 13 13 14 14 15 16 17 18 17 13 11 13 13 13 14 14 15 15
1 7 11 15 18 16 18 19 17 11 15 12 13 14 9 10 7 12 12 17 11 15 20 9 15 16 16 13 16 18 17 18 20 21 20 14 11 9 9 12 13 13 13 12 15 16 15 14 15 16 16 17 17 17 14 7 6 9 10 12 10 9 9 8 7 9 11 12 13 14 15 14 14 14 15 13 10 10 11 11 12 14 13 12 15 16
4 6 6 11 17 15 19 20 19 17 15 16 18 18 20 18 17 17 18 17 14 16 22 14 14 17 14 11 12 15 16 17 16 19 20 19 18 16 13 12 13 13 12 13 12 13 14 15 14 15 17 16 18 20 20 18 18 15 11 8 8 6 7 7 6 10 12 12 13 15 14 12 12 12 11 10 10 11 12 13 14 12 12 13 14 12
3 6 9 12 16 14 16 17 17 20 19 18 18 19 20 20 22 23 25 22 22 22 21 21 21 25 19 20 16 13 13 14 14 16 18 19 14 13 14 12 11 10 11 12 11 11 12 13 14 15 16 18 18 19 19 19 20 20 19 18 18 15 10 4 9 11 11 12 14 14 11 12 10 10 10 11 14 14 14 13 13 14 15 15 15 13
2 5 12 11 12 12 12 16 17 21 20 21 16 16 18 21 23 24 23 21 20 22 21 26 27 26 10 12 12 10 9 10 14 15 12 12 14 13 13 14 13 13 12 12 12 13 12 14 14 15 17 17 17 17 17 16 16 17 18 18 18 16 13 6 9 9 11 14 13 11 8 8 10 9 12 13 12 11 12 14 13 14 14 13 13 14
1 6 5 7 11 11 7 9 12 13 14 17 19 20 20 21 22 18 17 19 19 22 22 21 18 12 9 13 9 12 13 14 13 11 11 11 10 10 11 12 12 13 13 12 13 13 13 14 14 16 16 16 16 16 15 17 16 16 17 17 16 16 13 9 9 11 12 13 11 9 10 10 9 10 11 9 11 11 11 10 10 11 12 12 12 13
3 4 6 9 12 12 12 11 8 13 17 17 16 16 21 21 18 17 17 17 17 12 13 11 6 5 6 9 12 13 14 14 12 10 7 9 7 6 7 8 9 10 11 11 12 12 12 12 12 13 14 13 14 15 14 14 15 16 17 17 16 15 14 11 9 10 11 11 9 9 8 7 9 10 9 10 10 9 9 11 11 12 12 14 13 10
6 7 9 6 12 12 15 18 14 13 16 12 5 5 2 7 6 10 7 6 9 9 5 6 3 3 7 9 12 13 13 11 12 12 4 6 7 8 7 7 6 8 9 10 9 9 8 9 10 11 11 11 12 11 11 10 12 14 13 13 14 15 17 16 14 9 10 9 7 7 6 6 7 9 9 7 7 8 10 11 13 12 11 10 10 13
13 11 12 6 11 14 13 14 15 19 16 3 6 5 4 8 10 3 8 6 9 11 8 6 6 7 7 5 7 9 10 12 10 11 3 9 8 8 8 8 8 7 8 8 10 10 10 11 10 10 12 13 13 12 12 14 14 15 15 14 15 15 16 17 16 14 10 10 9 6 6 6 6 8 6 6 7 8 10 11 10 10 11 11 13 14
10 11 8 7 6 8 8 9 15 16 1 6 5 8 4 1 7 6 5 8 5 7 7 6 3 3 5 5 5 7 9 12 10 8 2 11 7 8 9 9 9 8 9 9 7 9 9 11 12 12 13 11 11 11 10 11 12 13 14 12 12 13 14 14 14 14 12 11 9 7 6 5 6 6 5 6 7 9 10 10 11 12 10 9 9 8
13 9 6 10 6 13 11 13 18 11 14 10 3 7 6 4 5 3 4 3 5 1 5 1 0 0 2 4 6 7 8 9 9 6 2 3 4 4 6 7 8 7 7 7 7 8 8 7 9 10 10 12 12 12 11 11 11 12 12 12 12 12 12 12 14 14 13 12 9 8 6 5 5 5 5 6 7 9 9 9 9 8 6 8 8 9
10 12 8 12 7 11 11 10 8 6 10 1 5 6 5 5 6 4 5 4 7 1 2 3 3 2 2 6 6 8 8 8 11 7 1 1 2 5 6 6 6 6 6 8 8 8 8 7 7 8 8 10 10 10 9 9 10 11 11 12 12 12 12 13 14 13 12 12 11 8 6 5 5 5 6 6 9 9 8 7 5 7 7 10 9 9
2 4 8 13 11 8 10 9 9 10 6 6 4 4 6 7 7 4 3 7 4 2 6 5 4 6 5 4 7 4 5 8 10 9 3 3 6 5 8 7 6 7 7 8 9 10 10 9 8 8 8 9 11 10 10 11 11 11 12 11 12 11 11 13 14 14 14 14 12 9 6 5 4 5 5 7 7 6 7 7 7 5 5 6 6 7
4 2 1 5 7 6 7 9 12 4 4 3 2 5 7 7 7 3 6 3 3 5 8 6 5 5 6 7 6 4 2 7 11 12 8 6 6 7 7 9 8 8 8 8 7 7 8 8 7 8 8 9 10 10 10 11 11 11 11 11 10 12 12 12 12 11 10 10 9 8 6 4 4 4 4 5 4 4 4 4 5 6 7 5 5 5
1 4 2 8 7 10 12 11 7 7 1 1 3 4 7 3 1 6 13 1 4 4 7 9 9 7 6 7 6 4 6 7 11 14 13 6 5 8 7 7 9 9 10 9 8 8 8 7 6 7 8 7 9 9 9 10 10 12 11 10 11 12 12 11 10 11 10 9 9 8 7 5 4 5 3 3 4 3 4 5 6 6 6 6 5 5
3 3 4 3 7 8 9 11 10 7 4 4 5 3 5 3 4 10 2 2 4 5 6 10 10 9 7 9 8 8 9 9 10 11 12 11 8 7 8 8 8 9 7 7 10 9 9 9 8 8 8 7 8 8 8 9 11 11 11 11 12 11 10 10 10 9 9 9 9 8 7 6 4 3 3 3 4 4 4 3 5 6 6 5 5 7
4 5 4 7 3 2 1 7 9 12 0 4 3 10 1 1 7 6 6 3 6 6 7 8 10 11 8 9 10 11 10 10 9 11 11 11 10 9 8 10 10 11 11 10 10 9 9 10 10 10 10 8 7 7 8 8 10 11 10 11 12 10 10 9 9 9 9 9 9 8 8 7 6 4 2 3 4 5 5 4 5 6 7 7 6 7
4 8 3 4 3 10 7 9 6 2 2 2 4 6 6 10 8 7 4 5 4 6 7 8 8 10 11 10 10 10 10 10 9 10 9 9 9 7 7 8 10 10 10 9 9 11 10 10 10 11 9 9 8 8 8 9 11 10 11 12 11 10 10 9 9 8 9 10 9 8 7 7 6 5 4 4 5 5 6 6 6 7 7 8 8 7
6 11 6 12 5 8 6 9 6 5 4 7 10 14 13 13 7 3 4 6 9 9 8 7 8 9 10 11 10 10 10 8 10 7 6 8 8 8 9 9 10 11 11 12 12 10 8 10 11 12 12 11 9 9 9 8 11 13 13 11 9 11 11 10 10 9 10 11 10 9 8 6 6 6 5 5 6 7 7 7 8 8 7 8 8 9
2 2 0 3 5 7 6 8 10 7 7 14 12 9 8 6 6 5 5 9 10 11 7 8 7 9 9 9 8 7 9 8 6 7 7 7 8 10 10 10 9 10 10 11 11 10 9 10 11 11 13 12 10 10 10 9 9 14 15 11 10 10 10 11 11 11 11 11 10 10 8 8 8 7 7 7 6 8 7 9 9 8 7 8 9 9
6 6 4 7 10 9 12 8 7 9 12 10 11 9 6 6 8 8 10 10 10 10 9 7 10 9 8 4 6 7 5 5 7 7 7 7 9 10 11 12 11 10 11 12 12 11 10 9 11 13 12 14 12 10 10 11 10 12 13 13 10 10 10 11 12 12 12 12 11 10 8 9 8 7 7 8 7 7 7 7 7 8 9 10 10 10
9 6 8 12 14 11 15 16 14 11 12 11 9 10 12 13 12 10 9 9 9 8 8 7 3 4 1 3 3 3 5 6 6 8 7 7 9 10 12 13 13 13 12 12 12 12 10 11 12 13 13 13 14 12 11 11 13 12 13 12 11 10 11 12 12 12 13 14 12 11 9 9 11 10 8 8 9 8 8 8 9 10 11 12 13 12
5 3 3 3 7 11 13 11 12 15 12 13 14 13 12 11 11 9 9 9 7 6 6 6 2 2 4 4 4 5 6 9 7 7 8 9 11 11 11 12 13 14 13 14 13 11 12 11 13 13 14 15 14 13 12 13 14 13 13 12 11 10 11 12 14 14 15 15 12 13 11 9 9 9 9 8 8 10 10 11 11 12 11 10 9 12
4 12 12 7 10 12 13 15 12 10 11 11 8 8 9 5 5 8 6 6 6 6 7 8 10 5 4 4 4 5 7 10 11 9 10 11 13 14 14 14 13 13 14 13 12 11 13 13 13 14 15 16 15 14 13 14 14 13 12 12 11 10 11 13 14 15 15 14 13 13 12 10 9 9 9 9 9 9 9 11 15 11 11 10 14 19
11 13 9 10 10 13 14 15 11 12 11 10 12 13 5 6 4 5 6 5 6 6 6 8 10 12 12 10 6 7 8 10 13 11 12 13 14 13 14 14 14 14 15 14 13 14 14 13 13 13 16 17 15 15 15 14 13 14 14 13 12 11 12 13 14 15 15 14 13 14 13 11 11 10 9 9 9 9 9 8 10 20 22 16 12 18
Wind_Direction
136 164 175 187 220 223 222 191 212 225 235 292 205 223 252 256 275 258 260 264 194 326 258 264 265 265 267 263 267 268 275 280 274 269 263 261 263 259 258 255 255 255 253 259 261 245 230 225 214 206 196 202 196 197 190 192 195 192 191 183 191 187 178 174 174 178 175 176 173 184 193 196 188 193 191 193 195 192 195 187 187 187 187 181 180 181
107 210 213 208 220 225 214 210 226 255 305 251 269 269 266 237 271 254 271 266 268 190 272 209 271 271 269 267 267 274 257 264 269 272 270 263 256 259 261 262 259 254 263 267 270 259 229 224 210 195 194 182 187 202 191 195 196 195 190 189 190 177 181 184 183 181 182 184 184 183 190 189 189 187 188 196 196 196 189 186 188 188 184 182 184 181
213 214 219 223 231 269 302 182 186 208 237 247 236 261 289 260 258 279 263 270 260 195 278 269 263 266 264 262 264 261 260 248 255 259 264 269 269 262 259 258 262 265 261 262 258 260 241 211 200 192 197 197 200 195 196 200 193 192 190 195 183 184 183 188 183 178 188 188 190 188 186 185 186 197 196 192 183 172 184 192 190 184 184 183 185 183
264 248 236 236 247 261 277 174 140 196 224 218 236 253 247 263 305 284 206 333 338 193 293 275 281 278 269 259 252 249 256 251 243 257 263 259 258 257 255 255 259 264 265 260 257 258 246 188 197 198 201 204 200 200 204 197 195 192 196 190 186 187 186 183 185 186 186 183 177 170 140 164 151 171 163 154 144 174 178 198 190 190 186 184 186 185
228 223 229 224 216 208 238 241 230 257 263 197 217 233 260 256 241 236 270 344 305 276 240 297 288 277 239 247 241 251 241 255 252 258 264 264 255 249 256 262 253 254 259 264 269 263 241 192 204 202 206 189 198 203 200 195 193 194 195 191 187 184 185 184 182 181 169 151 134 122 95 103 92 81 139 149 183 190 196 187 193 199 182 185 188 185
263 255 118 159 210 215 223 251 225 221 263 245 219 204 235 245 269 270 283 343 353 316 315 23 327 293 184 203 219 229 253 249 245 245 255 258 258 255 257 257 256 252 253 259 266 268 246 216 213 213 205 199 208 209 207 195 196 191 191 187 184 181 182 184 181 174 167 172 166 159 159 168 179 182 178 192 198 192 193 201 179 167 189 188 189 188
233 233 180 204 183 210 206 223 232 184 243 258 261 207 234 247 251 265 279 357 281 241 318 31 155 293 162 205 223 229 236 244 262 235 247 254 255 254 252 258 266 259 260 258 262 270 262 238 209 212 206 207 208 218 194 190 194 193 187 184 182 181 181 179 177 174 172 174 179 182 184 183 184 192 204 204 198 190 193 169 180 188 184 191 188 190
185 277 195 216 191 183 185 248 241 188 229 264 234 173 207 221 223 238 229 201 252 279 280 170 149 251 298 282 198 209 220 232 245 252 252 251 256 254 253 262 268 266 257 254 256 257 251 240 211 217 211 206 215 197 176 192 190 189 185 179 181 180 180 180 175 178 179 179 181 185 191 193 197 200 200 192 192 179 167 180 185 182 191 189 192 187
163 217 185 194 188 173 200 220 204 148 184 225 277 155 191 203 211 180 189 209 225 25 302 177 82 293 261 262 118 161 206 250 245 246 247 251 253 257 270 268 261 261 261 250 256 258 250 238 230 225 211 213 202 185 192 191 187 183 178 177 177 181 180 180 179 181 185 185 184 186 188 196 206 202 200 172 165 169 172 182 184 187 189 189 193 191
293 193 208 176 155 215 227 242 149 167 198 268 112 78 71 69 68 131 128 152 310 356 257 172 171 232 275 293 92 28 143 235 238 236 243 250 264 272 266 266 269 270 265 256 242 254 263 238 234 220 218 197 203 195 186 177 169 174 171 176 178 185 182 180 182 184 187 188 184 191 196 199 198 193 173 162 175 177 174 188 187 188 184 190 189 193
232 338 161 132 204 220 138 334 172 193 182 124 79 68 7 35 27 19 65 86 22 259 259 170 195 172 271 293 165 142 197 209 233 287 278 274 265 262 263 262 269 274 274 267 276 255 256 250 245 214 211 209 185 178 170 169 171 170 174 176 181 186 181 182 185 185 189 190 191 197 197 198 197 190 176 172 182 179 179 194 191 188 190 182 193 185
246 62 176 248 80 82 106 99 30 38 140 139 215 127 25 322 13 28 342 33 199 272 219 186 182 184 229 287 306 235 276 259 204 222 241 249 254 260 267 266 264 269 269 284 300 280 275 288 277 214 223 195 181 164 175 174 169 172 174 176 183 185 188 185 187 189 192 193 199 202 199 200 200 186 187 191 191 187 190 191 187 183 175 192 188 189
261 222 211 113 209 157 159 135 307 19 67 112 85 97 200 268 28 313 26 304 194 236 270 221 165 311 239 249 284 293 273 271 236 218 228 244 261 267 269 267 268 271 281 282 273 290 284 242 235 215 217 197 187 189 178 177 175 174 177 180 182 192 187 188 186 192 193 195 202 202 202 204 197 195 197 198 196 190 192 188 183 179 192 181 186 198
274 269 146 221 63 215 138 186 238 302 205 133 165 162 128 263 247 253 263 250 295 282 256 162 167 242 280 291 210 249 253 249 248 232 238 240 246 254 259 282 299 297 292 287 249 216 232 240 253 233 215 212 220 196 182 180 180 180 181 185 189 193 186 186 189 194 194 202 203 200 201 200 194 201 200 201 201 193 193 187 191 190 190 190 198 191
304 296 230 136 234 184 180 198 198 195 161 196 145 159 187 183 160 237 190 243 242 249 328 270 121 233 94 240 237 224 292 326 269 244 243 251 261 281 304 298 290 290 284 295 63 217 242 287 283 253 225 218 206 200 190 190 190 181 186 188 193 187 191 189 192 191 202 207 206 203 203 199 198 202 200 203 200 192 192 195 194 196 194 197 199 195
215 240 265 189 15 149 182 218 180 92 69 211 163 69 57 229 135 225 221 235 267 284 333 208 213 212 233 131 270 244 262 273 264 269 336 286 283 282 286 280 274 275 284 298 350 341 306 273 260 237 226 213 203 205 202 196 193 193 196 193 193 193 188 190 189 199 202 204 200 206 206 207 203 203 202 204 201 202 196 193 194 197 196 199 189 192
302 264 286 260 41 165 244 6 212 152 223 222 114 200 219 90 154 246 266 261 51 41 259 217 296 269 315 282 268 270 267 266 294 297 287 281 267 272 266 269 278 286 296 325 343 327 310 302 272 241 228 208 195 199 214 207 196 196 190 191 198 199 192 193 197 200 199 198 198 206 208 205 204 203 203 205 204 199 193 191 197 196 197 188 189 190
252 278 16 136 247 352 186 274 348 17 141 106 202 241 42 125 105 164 222 344 205 234 250 265 262 272 342 286 357 12 18 309 296 260 263 293 317 293 279 298 316 314 308 295 286 270 259 265 267 272 273 248 228 214 205 253 286 266 216 196 191 191 200 206 202 200 196 196 203 205 206 208 209 210 213 211 205 195 188 194 195 193 186 198 192 179
69 277 260 331 156 287 339 235 320 14 357 145 187 279 146 240 250 247 95 228 235 238 256 221 267 272 239 260 282 305 301 286 272 275 348 307 287 289 302 299 284 275 286 298 296 296 281 280 325 344 270 253 244 242 233 195 213 249 253 227 199 201 206 207 208 208 206 203 206 206 207 207 209 212 214 212 203 188 196 198 197 195 198 182 180 184
37 267 297 348 116 324 17 101 232 235 325 101 14 309 298 82 231 146 199 207 210 256 248 246 228 259 251 208 239 236 239 250 277 314 304 295 286 292 290 283 284 301 300 298 302 302 317 322 280 246 230 232 228 222 220 214 192 214 224 238 230 216 205 203 207 205 207 207 207 209 206 208 209 210 209 205 199 199 204 204 198 196 190 195 182 183
234 195 251 210 212 0 290 182 213 177 210 232 242 277 310 212 228 105 308 182 221 255 239 265 249 240 255 204 201 229 230 222 204 254 272 268 276 280 273 279 310 315 311 312 311 311 311 299 267 245 249 243 261 273 249 237 240 235 209 223 226 221 206 206 211 204 214 207 215 214 211 210 205 208 203 201 204 207 208 205 203 200 198 168 186 183
42 296 244 355 309 256 237 192 190 187 160 163 189 229 227 239 275 260 258 177 222 233 250 252 255 249 275 276 204 219 218 188 203 219 280 295 304 301 285 294 294 311 308 317 309 290 280 250 243 262 263 224 180 222 212 206 203 219 222 223 220 229 227 216 210 209 211 206 211 211 221 221 215 207 198 203 203 207 206 205 204 201 183 192 190 181
157 181 152 217 228 250 263 245 198 200 227 240 218 254 246 236 236 239 257 240 269 243 276 261 282 239 207 281 265 241 251 224 265 268 286 271 270 304 319 312 300 274 282 303 311 321 331 342 346 342 297 216 213 230 228 225 217 223 228 232 224 216 228 220 220 214 208 205 207 212 213 211 212 206 203 203 204 207 207 205 198 186 193 197 190 188
79 158 188 249 260 278 279 275 254 204 221 280 250 226 228 237 223 243 248 253 260 268 267 265 248 259 205 252 275 291 283 264 236 215 254 288 318 327 328 322 323 325 323 324 322 324 333 326 316 321 324 325 316 279 251 237 232 227 222 217 213 219 228 221 220 212 206 210 214 214 208 208 207 201 206 206 208 207 206 200 195 187 194 194 190 190
275 213 218 280 253 274 270 301 279 81 122 208 223 213 217 232 237 241 253 2 263 236 247 255 259 245 236 250 267 278 281 280 271 261 206 296 298 296 300 298 293 297 306 315 324 331 335 336 332 324 316 306 292 284 271 260 244 236 236 227 222 226 228 220 219 211 215 215 221 220 215 216 206 206 207 210 211 210 205 199 194 188 192 186 191 192
229 208 186 238 261 268 265 254 257 263 214 208 237 227 222 221 234 250 254 234 250 239 237 248 259 250 251 250 263 269 278 280 278 278 276 198 244 283 279 278 284 298 324 335 342 348 346 339 336 335 332 331 334 325 315 299 281 276 272 264 257 260 257 241 229 222 222 222 224 224 217 216 206 209 210 212 214 212 202 199 194 190 190 188 189 186
270 290 223 234 239 249 252 260 255 265 296 253 246 211 235 232 234 233 248 250 249 258 246 245 256 267 253 256 256 261 265 277 292 296 292 307 291 274 279 313 344 3 13 13 11 4 2 1 354 347 346 341 338 332 303 294 292 282 274 272 257 246 243 235 220 224 224 226 224 227 221 215 211 211 212 213 212 206 200 195 195 191 193 190 189 185
291 246 234 247 245 247 256 261 268 260 263 261 268 263 253 247 233 239 235 250 259 270 260 250 256 258 259 254 257 266 274 281 285 292 305 313 318 333 13 35 33 23 14 11 11 6 357 348 348 349 346 346 345 341 341 317 257 247 249 252 247 234 238 238 222 228 230 229 229 228 226 219 216 216 217 215 209 203 201 196 190 196 194 187 191 191
290 255 265 259 260 258 258 262 264 264 253 253 254 259 259 257 255 252 250 247 246 245 263 267 264 265 258 250 260 262 268 274 286 299 315 335 7 32 39 35 26 15 6 8 3 358 355 349 346 345 347 346 346 347 344 344 342 336 320 293 278 258 245 247 234 239 237 236 234 232 227 220 217 216 213 203 200 200 196 196 196 190 189 193 196 194
290 251 253 258 273 268 268 262 261 260 264 256 247 246 250 254 257 256 259 256 249 254 258 262 263 261 263 265 270 299 340 350 349 358 18 34 25 14 29 23 17 11 4 0 357 353 351 347 344 345 344 348 350 348 346 346 345 343 340 336 332 327 310 278 250 247 247 240 238 238 231 223 218 211 204 200 201 200 196 193 191 190 193 195 194 191
249 299 3 328 312 294 280 272 266 262 262 264 259 254 250 251 254 253 259 267 273 268 264 258 258 263 281 3 19 15 13 9 17 16 21 24 21 16 12 12 5 4 359 356 354 354 351 348 346 345 348 348 348 346 344 343 342 341 341 340 335 327 316 286 260 250 242 242 239 237 230 225 222 209 208 208 203 200 193 194 192 193 193 192 191 189
310 283 299 292 294 283 277 281 286 292 286 277 272 266 262 256 255 255 254 250 253 261 266 273 269 276 354 341 351 16 12 18 10 4 16 11 11 12 10 1 360 354 354 350 350 349 352 353 350 348 345 344 343 344 344 343 340 340 340 335 332 326 315 286 262 254 249 244 244 231 222 217 214 210 216 206 205 198 196 190 189 193 192 189 190 191
232 277 293 301 288 272 284 281 299 304 305 286 270 260 255 259 257 259 257 265 272 290 289 283 356 11 316 351 358 1 6 355 356 344 9 0 14 13 8 356 348 346 345 345 345 347 347 349 346 343 340 341 342 341 339 340 340 339 335 332 328 326 327 314 279 264 261 259 251 244 230 218 212 215 212 209 203 193 186 188 189 190 187 193 192 179
247 247 262 256 268 283 290 290 294 286 261 260 315 9 338 277 293 281 299 28 39 79 110 127 137 349 19 9 11 350 350 343 330 315 311 355 358 360 359 355 346 339 336 336 339 338 338 339 341 339 337 333 332 332 328 335 335 329 327 325 329 339 338 335 323 298 284 286 276 263 245 227 219 219 216 204 195 189 190 190 196 193 190 182 178 189
260 267 264 257 269 278 284 290 290 262 266 329 74 16 45 59 48 71 65 45 61 78 101 69 39 34 28 14 360 324 319 323 316 315 244 14 10 1 352 343 340 339 336 330 337 336 335 336 333 335 338 339 335 333 336 339 342 334 335 340 340 342 340 340 335 324 313 302 295 285 263 243 230 229 214 194 189 188 195 196 194 189 190 187 190 189
246 252 270 259 261 275 260 250 256 263 290 134 107 43 350 84 20 38 90 69 28 47 79 78 64 58 353 339 343 327 319 310 315 297 260 12 4 346 340 335 331 330 330 330 321 321 326 331 333 331 330 329 328 328 335 335 333 335 331 332 341 341 342 340 340 333 327 317 307 297 279 258 246 232 208 192 189 194 198 196 194 194 189 188 193 193
234 254 251 275 241 268 261 258 259 292 283 257 342 0 37 11 341 27 290 41 86 224 79 353 343 145 315 307 322 307 304 308 307 303 91 2 313 323 313 308 305 307 304 304 304 305 309 308 317 320 320 324 328 328 333 333 332 330 330 337 340 344 343 347 347 342 332 321 312 303 286 264 242 230 209 195 194 200 199 195 197 194 179 188 194 190
218 223 229 255 233 242 269 279 282 283 264 108 197 261 279 232 265 242 248 252 124 214 176 148 239 272 305 255 277 304 296 325 325 317 309 226 273 290 284 273 272 273 289 296 301 302 307 310 308 314 319 316 321 322 323 327 329 329 333 337 339 343 345 353 349 341 332 322 316 307 290 267 241 227 209 198 204 203 201 193 183 184 176 187 187 193
358 228 245 246 280 296 286 278 273 274 278 115 249 239 248 253 262 252 203 242 136 151 215 167 225 223 236 261 257 280 331 327 304 303 325 316 308 295 290 277 271 283 284 296 306 309 312 316 315 314 320 320 321 325 326 326 330 332 334 338 338 339 347 350 345 342 335 325 316 307 291 272 256 238 218 212 212 201 194 188 184 168 160 180 185 192
27 336 63 260 251 240 264 265 268 248 257 189 183 264 243 276 293 166 269 258 134 212 206 194 233 243 244 219 223 220 270 304 303 303 304 291 279 281 275 285 286 287 292 296 294 294 299 299 310 316 321 323 320 322 327 328 329 332 331 334 334 341 345 344 339 329 325 321 317 310 300 282 258 246 229 221 206 188 185 157 147 160 168 172 167 166
312 295 181 238 243 259 257 270 280 275 232 260 279 261 284 273 133 264 268 317 338 206 211 203 226 233 226 229 213 217 232 231 267 279 284 275 274 269 255 253 275 287 297 301 297 303 304 300 298 303 307 313 316 320 323 327 327 328 330 330 335 336 339 335 332 331 329 324 320 316 304 292 262 244 230 197 183 166 154 163 164 157 162 168 161 154
276 178 289 223 232 240 251 256 254 277 233 168 260 286 292 31 304 249 226 293 259 258 218 206 229 234 225 223 227 225 242 249 256 269 282 277 262 266 275 283 287 290 284 288 297 306 305 305 305 305 308 309 316 314 318 322 323 319 325 328 328 328 329 333 331 329 328 326 318 311 303 290 277 241 203 161 152 161 176 166 153 157 159 160 160 170
236 275 218 241 238 310 249 273 279 272 190 112 273 327 243 144 218 273 288 241 206 239 237 225 215 237 232 239 231 237 248 257 259 260 260 273 282 284 294 300 302 299 303 305 307 303 304 305 307 308 308 312 314 317 315 316 314 316 318 320 317 320 325 326 328 327 324 318 313 304 295 285 270 255 205 182 177 171 173 161 156 154 152 158 166 180
197 258 243 255 203 267 239 242 235 218 233 274 5 290 284 273 269 265 253 277 248 232 240 241 227 224 229 231 241 245 244 249 256 254 257 264 270 278 281 284 288 293 292 294 294 300 302 300 301 305 306 310 312 313 316 316 311 311 313 309 311 316 318 324 326 327 321 317 307 297 285 273 270 261 236 201 181 180 175 174 171 167 168 163 170 180
180 230 214 253 210 234 218 243 238 259 306 309 293 281 276 276 273 210 239 272 295 280 238 238 246 239 221 227 237 244 257 245 247 253 266 266 276 281 284 289 291 296 300 302 303 300 299 296 301 304 305 306 309 310 310 312 307 306 305 302 310 313 316 320 324 323 318 312 307 292 276 260 254 248 235 222 195 189 189 184 180 180 180 172 179 185
293 260 88 307 253 265 252 244 267 291 281 271 264 260 263 275 271 268 271 290 275 270 243 229 238 245 239 225 233 244 238 250 265 272 273 285 290 292 295 297 297 297 299 300 299 299 297 300 299 301 301 302 304 305 305 302 302 300 297 303 306 305 315 318 320 318 311 308 303 292 272 257 250 239 235 224 218 213 201 193 192 190 178 182 191 193
248 246 239 242 263 268 263 254 255 252 258 255 259 270 265 252 261 279 287 273 269 264 265 250 247 249 250 260 227 247 269 272 274 277 285 295 293 291 294 293 294 294 296 296 291 296 299 297 296 294 296 297 299 297 294 295 293 288 293 299 302 307 311 315 311 309 307 302 299 291 269 253 251 240 230 223 225 221 215 206 201 196 194 193 194 198
282 181 212 238 254 246 265 262 262 257 252 264 265 273 278 283 282 277 261 259 260 261 263 288 317 268 296 279 270 285 274 277 276 279 281 280 284 288 288 289 290 292 287 284 288 289 290 288 286 289 292 292 291 290 289 288 289 290 292 292 297 306 310 308 308 306 304 299 295 288 270 254 244 238 233 221 214 213 214 212 206 206 204 196 196 195
248 68 213 179 234 252 269 281 280 272 278 273 269 266 264 263 272 278 274 270 276 295 318 329 358 344 353 314 340 328 305 291 288 287 287 286 283 281 279 281 283 283 286 287 283 285 283 286 289 289 291 287 286 286 287 285 287 289 288 289 296 306 310 308 307 305 298 294 290 283 273 252 248 232 232 228 218 221 214 205 204 213 221 218 205 201
269 255 259 263 267 263 262 268 269 283 279 275 272 270 277 285 251 257 283 318 5 7 353 341 325 332 326 309 315 306 289 291 294 296 289 285 281 282 285 284 282 283 281 277 280 281 282 280 284 288 287 283 284 285 283 284 285 285 286 290 296 307 311 310 306 301 294 291 288 283 277 265 251 239 232 229 226 223 233 230 225 218 214 218 207 213
234 248 253 252 257 262 257 256 255 258 274 281 284 288 358 17 14 31 31 1 347 352 348 341 328 325 319 313 307 297 290 290 290 295 289 283 282 281 280 283 286 286 281 282 285 281 279 283 285 284 280 280 283 283 284 284 285 286 285 290 297 308 309 307 300 293 287 286 281 279 276 269 259 247 234 230 227 222 225 230 230 231 229 226 213 215